Year,Month,Day,Hour,Minute,Value (Times are PST for temperature in C)
2015,01,16,10,04,9.50
2015,01,16,10,05,9.60
2015,01,16,10,06,9.60
2015,01,16,10,07,9.60
2015,01,16,10,08,9.70
2015,01,16,10,09,9.70
2015,01,16,10,10,9.70
2015,01,16,10,11,9.70
2015,01,16,10,12,9.80
2015,01,16,10,13,9.80
2015,01,16,10,14,9.80
2015,01,16,10,15,9.80
2015,01,16,10,16,9.80
2015,01,16,10,17,9.80
2015,01,16,10,18,9.80
2015,01,16,10,19,9.90
2015,01,16,10,20,9.90
2015,01,16,10,21,9.90
2015,01,16,10,22,9.90
2015,01,16,10,23,10.00
2015,01,16,10,24,10.00
2015,01,16,10,25,10.00
2015,01,16,10,26,10.10
2015,01,16,10,27,10.10
2015,01,16,10,28,10.10
2015,01,16,10,29,10.10
2015,01,16,10,30,10.10
2015,01,16,10,31,10.10
2015,01,16,10,32,10.10
2015,01,16,10,33,10.20
2015,01,16,10,34,10.20
2015,01,16,10,35,10.20
2015,01,16,10,36,10.20
2015,01,16,10,37,10.20
2015,01,16,10,38,10.20
2015,01,16,10,39,10.20
2015,01,16,10,40,10.20
2015,01,16,10,41,10.20
2015,01,16,10,42,10.20
2015,01,16,10,43,10.20
2015,01,16,10,44,10.20
2015,01,16,10,45,10.20
2015,01,16,10,46,10.20
2015,01,16,10,47,10.20
2015,01,16,10,48,10.20
2015,01,16,10,49,10.20
2015,01,16,10,50,10.20
2015,01,16,10,51,10.20
2015,01,16,10,52,10.20
2015,01,16,10,53,10.20
2015,01,16,10,54,10.20
2015,01,16,10,55,10.30
2015,01,16,10,56,10.30
2015,01,16,10,57,10.30
2015,01,16,10,58,10.30
2015,01,16,10,59,10.30
2015,01,16,11,00,10.30
2015,01,16,11,01,10.30
2015,01,16,11,02,10.30
2015,01,16,11,03,10.30
2015,01,16,11,04,10.30
2015,01,16,11,05,10.30
2015,01,16,11,06,10.30
2015,01,16,11,07,10.30
2015,01,16,11,08,10.30
2015,01,16,11,09,10.20
2015,01,16,11,10,10.20
2015,01,16,11,11,10.20
2015,01,16,11,12,10.20
2015,01,16,11,13,10.20
2015,01,16,11,14,10.20
2015,01,16,11,15,10.20
2015,01,16,11,16,10.20
2015,01,16,11,17,10.30
2015,01,16,11,18,10.30
2015,01,16,11,19,10.30
2015,01,16,11,20,10.30
2015,01,16,11,21,10.30
2015,01,16,11,22,10.30
2015,01,16,11,23,10.40
2015,01,16,11,24,10.40
2015,01,16,11,25,10.40
2015,01,16,11,26,10.40
2015,01,16,11,27,10.40
2015,01,16,11,28,10.40
2015,01,16,11,29,10.40
2015,01,16,11,30,10.40
2015,01,16,11,31,10.40
2015,01,16,11,32,10.50
2015,01,16,11,33,10.50
2015,01,16,11,34,10.50
2015,01,16,11,35,10.40
2015,01,16,11,36,10.40
2015,01,16,11,37,10.40
2015,01,16,11,38,10.40
2015,01,16,11,39,10.40
2015,01,16,11,40,10.40
2015,01,16,11,41,10.40
2015,01,16,11,42,10.40
2015,01,16,11,43,10.40
2015,01,16,11,44,10.40
2015,01,16,11,45,10.40
2015,01,16,11,46,10.40
2015,01,16,11,47,10.40
2015,01,16,11,48,10.50
2015,01,16,11,49,10.50
2015,01,16,11,50,10.50
2015,01,16,11,51,10.50
2015,01,16,11,52,10.50
2015,01,16,11,53,10.40
2015,01,16,11,54,10.40
2015,01,16,11,55,10.40
2015,01,16,11,56,10.40
2015,01,16,11,57,10.40
2015,01,16,11,58,10.40
2015,01,16,11,59,10.40
2015,01,16,12,00,10.40
2015,01,16,12,01,10.40
2015,01,16,12,02,10.40
2015,01,16,12,03,10.40
2015,01,16,12,04,10.40
2015,01,16,12,05,10.40
2015,01,16,12,06,10.40
2015,01,16,12,07,10.40
2015,01,16,12,08,10.40
2015,01,16,12,09,10.40
2015,01,16,12,10,10.40
2015,01,16,12,11,10.40
2015,01,16,12,12,10.40
2015,01,16,12,13,10.40
2015,01,16,12,14,10.40
2015,01,16,12,15,10.40
2015,01,16,12,16,10.40
2015,01,16,12,17,10.40
2015,01,16,12,18,10.40
2015,01,16,12,19,10.50
2015,01,16,12,20,10.50
2015,01,16,12,21,10.60
2015,01,16,12,22,10.60
2015,01,16,12,23,10.60
2015,01,16,12,24,10.60
2015,01,16,12,25,10.60
2015,01,16,12,26,10.70
2015,01,16,12,27,10.70
2015,01,16,12,28,10.70
2015,01,16,12,29,10.70
2015,01,16,12,30,10.70
2015,01,16,12,31,10.70
2015,01,16,12,32,10.70
2015,01,16,12,33,10.70
2015,01,16,12,34,10.70
2015,01,16,12,35,10.70
2015,01,16,12,36,10.70
2015,01,16,12,37,10.70
2015,01,16,12,38,10.70
2015,01,16,12,39,10.60
2015,01,16,12,40,10.60
2015,01,16,12,41,10.60
2015,01,16,12,42,10.60
2015,01,16,12,43,10.60
2015,01,16,12,44,10.70
2015,01,16,12,45,10.70
2015,01,16,12,46,10.70
2015,01,16,12,47,10.70
2015,01,16,12,48,10.70
2015,01,16,12,49,10.70
2015,01,16,12,50,10.70
2015,01,16,12,51,10.70
2015,01,16,12,52,10.70
2015,01,16,12,53,10.70
2015,01,16,12,54,10.70
2015,01,16,12,55,10.70
2015,01,16,12,56,10.70
2015,01,16,12,57,10.70
2015,01,16,12,58,10.70
2015,01,16,12,59,10.80
2015,01,16,13,00,10.80
2015,01,16,13,01,10.80
2015,01,16,13,02,10.70
2015,01,16,13,03,10.70
2015,01,16,13,04,10.70
2015,01,16,13,05,10.70
2015,01,16,13,06,10.70
2015,01,16,13,07,10.70
2015,01,16,13,08,10.70
2015,01,16,13,09,10.70
2015,01,16,13,10,10.60
2015,01,16,13,11,10.60
2015,01,16,13,12,10.60
2015,01,16,13,13,10.60
2015,01,16,13,14,10.60
2015,01,16,13,15,10.70
2015,01,16,13,16,10.70
2015,01,16,13,17,10.70
2015,01,16,13,18,10.80
2015,01,16,13,19,10.80
2015,01,16,13,20,10.80
2015,01,16,13,21,10.90
2015,01,16,13,22,10.90
2015,01,16,13,23,11.00
2015,01,16,13,24,11.00
2015,01,16,13,25,11.00
2015,01,16,13,26,11.10
2015,01,16,13,27,11.10
2015,01,16,13,28,11.10
2015,01,16,13,29,11.10
2015,01,16,13,30,11.10
2015,01,16,13,31,11.10
2015,01,16,13,32,11.10
2015,01,16,13,33,11.10
2015,01,16,13,34,11.10
2015,01,16,13,35,11.10
2015,01,16,13,36,11.10
2015,01,16,13,37,11.10
2015,01,16,13,38,11.20
2015,01,16,13,39,11.20
2015,01,16,13,40,11.20
2015,01,16,13,41,11.20
2015,01,16,13,42,11.20
2015,01,16,13,43,11.30
2015,01,16,13,44,11.30
2015,01,16,13,45,11.40
2015,01,16,13,46,11.40
2015,01,16,13,47,11.40
2015,01,16,13,48,11.40
2015,01,16,13,49,11.40
2015,01,16,13,50,11.30
2015,01,16,13,51,11.30
2015,01,16,13,52,11.30
2015,01,16,13,53,11.30
2015,01,16,13,54,11.30
2015,01,16,13,55,11.40
2015,01,16,13,56,11.40
2015,01,16,13,57,11.40
2015,01,16,13,58,11.40
2015,01,16,13,59,11.40
2015,01,16,14,00,11.40
2015,01,16,14,01,11.40
2015,01,16,14,02,11.40
2015,01,16,14,03,11.40
2015,01,16,14,04,11.40
2015,01,16,14,05,11.40
2015,01,16,14,06,11.50
2015,01,16,14,07,11.50
2015,01,16,14,08,11.50
2015,01,16,14,09,11.50
2015,01,16,14,10,11.60
2015,01,16,14,11,11.60
2015,01,16,14,12,11.60
2015,01,16,14,13,11.70
2015,01,16,14,14,11.70
2015,01,16,14,15,11.70
2015,01,16,14,16,11.60
2015,01,16,14,17,11.60
2015,01,16,14,18,11.60
2015,01,16,14,19,11.70
2015,01,16,14,20,11.70
2015,01,16,14,21,11.70
2015,01,16,14,22,11.70
2015,01,16,14,23,11.80
2015,01,16,14,24,11.80
2015,01,16,14,25,11.80
2015,01,16,14,26,11.80
2015,01,16,14,27,11.80
2015,01,16,14,28,11.70
2015,01,16,14,29,11.70
2015,01,16,14,30,11.60
2015,01,16,14,31,11.50
2015,01,16,14,32,11.50
2015,01,16,14,33,11.40
2015,01,16,14,34,11.40
2015,01,16,14,35,11.30
2015,01,16,14,36,11.20
2015,01,16,14,37,11.20
2015,01,16,14,38,11.10
2015,01,16,14,39,11.10
2015,01,16,14,40,11.00
2015,01,16,14,41,10.90
2015,01,16,14,42,10.90
2015,01,16,14,43,10.90
2015,01,16,14,44,10.90
2015,01,16,14,45,10.80
2015,01,16,14,46,10.80
2015,01,16,14,47,10.80
2015,01,16,14,48,10.80
2015,01,16,14,49,10.80
2015,01,16,14,50,10.80
2015,01,16,14,51,10.80
2015,01,16,14,52,10.70
2015,01,16,14,53,10.70
2015,01,16,14,54,10.70
2015,01,16,14,55,10.70
2015,01,16,14,56,10.70
2015,01,16,14,57,10.70
2015,01,16,14,58,10.70
2015,01,16,14,59,10.70
2015,01,16,15,00,10.70
2015,01,16,15,01,10.70
2015,01,16,15,02,10.70
2015,01,16,15,03,10.80
2015,01,16,15,04,10.80
2015,01,16,15,05,10.90
2015,01,16,15,06,10.90
2015,01,16,15,07,11.00
2015,01,16,15,08,11.00
2015,01,16,15,09,11.10
2015,01,16,15,10,11.20
2015,01,16,15,11,11.20
2015,01,16,15,12,11.30
2015,01,16,15,13,11.30
2015,01,16,15,14,11.40
2015,01,16,15,15,11.40
2015,01,16,15,16,11.40
2015,01,16,15,17,11.40
2015,01,16,15,18,11.40
2015,01,16,15,19,11.40
2015,01,16,15,20,11.50
2015,01,16,15,21,11.50
2015,01,16,15,22,11.60
2015,01,16,15,23,11.60
2015,01,16,15,24,11.60
2015,01,16,15,25,11.70
2015,01,16,15,26,11.70
2015,01,16,15,27,11.70
2015,01,16,15,28,11.70
2015,01,16,15,29,11.70
2015,01,16,15,30,11.70
2015,01,16,15,31,11.70
2015,01,16,15,32,11.70
2015,01,16,15,33,11.70
2015,01,16,15,34,11.70
2015,01,16,15,35,11.70
2015,01,16,15,36,11.70
2015,01,16,15,37,11.70
2015,01,16,15,38,11.70
2015,01,16,15,39,11.70
2015,01,16,15,40,11.70
2015,01,16,15,41,11.70
2015,01,16,15,42,11.60
2015,01,16,15,43,11.60
2015,01,16,15,44,11.60
2015,01,16,15,45,11.60
2015,01,16,15,46,11.50
2015,01,16,15,47,11.40
2015,01,16,15,48,11.40
2015,01,16,15,49,11.30
2015,01,16,15,50,11.20
2015,01,16,15,51,11.20
2015,01,16,15,52,11.10
2015,01,16,15,53,11.10
2015,01,16,15,54,11.00
2015,01,16,15,55,11.00
2015,01,16,15,56,10.90
2015,01,16,15,57,10.90
2015,01,16,15,58,10.90
2015,01,16,15,59,10.80
2015,01,16,16,00,10.80
2015,01,16,16,01,10.80
2015,01,16,16,02,10.80
2015,01,16,16,03,10.80
2015,01,16,16,04,10.80
2015,01,16,16,05,10.80
2015,01,16,16,06,10.80
2015,01,16,16,07,10.80
2015,01,16,16,08,10.80
2015,01,16,16,09,10.80
2015,01,16,16,10,10.80
2015,01,16,16,11,10.90
2015,01,16,16,12,10.80
2015,01,16,16,13,10.80
2015,01,16,16,14,10.80
2015,01,16,16,15,10.80
2015,01,16,16,16,10.70
2015,01,16,16,17,10.70
2015,01,16,16,18,10.70
2015,01,16,16,19,10.60
2015,01,16,16,20,10.60
2015,01,16,16,21,10.60
2015,01,16,16,22,10.50
2015,01,16,16,23,10.50
2015,01,16,16,24,10.40
2015,01,16,16,25,10.40
2015,01,16,16,26,10.30
2015,01,16,16,27,10.30
2015,01,16,16,28,10.20
2015,01,16,16,29,10.10
2015,01,16,16,30,10.10
2015,01,16,16,31,10.00
2015,01,16,16,32,9.90
2015,01,16,16,33,9.80
2015,01,16,16,34,9.80
2015,01,16,16,35,9.70
2015,01,16,16,36,9.70
2015,01,16,16,37,9.60
2015,01,16,16,38,9.60
2015,01,16,16,39,9.50
2015,01,16,16,40,9.50
2015,01,16,16,41,9.40
2015,01,16,16,42,9.40
2015,01,16,16,43,9.30
2015,01,16,16,44,9.30
2015,01,16,16,45,9.30
2015,01,16,16,46,9.20
2015,01,16,16,47,9.20
2015,01,16,16,48,9.20
2015,01,16,16,49,9.10
2015,01,16,16,50,9.10
2015,01,16,16,51,9.10
2015,01,16,16,52,9.00
2015,01,16,16,53,9.00
2015,01,16,16,54,8.90
2015,01,16,16,55,8.90
2015,01,16,16,56,8.90
2015,01,16,16,57,8.80
2015,01,16,16,58,8.80
2015,01,16,16,59,8.70
2015,01,16,17,00,8.70
2015,01,16,17,01,8.60
2015,01,16,17,02,8.60
2015,01,16,17,03,8.50
2015,01,16,17,04,8.50
2015,01,16,17,05,8.40
2015,01,16,17,06,8.40
2015,01,16,17,07,8.30
2015,01,16,17,08,8.30
2015,01,16,17,09,8.30
2015,01,16,17,10,8.20
2015,01,16,17,11,8.20
2015,01,16,17,12,8.20
2015,01,16,17,13,8.10
2015,01,16,17,14,8.10
2015,01,16,17,15,8.10
2015,01,16,17,16,8.00
2015,01,16,17,17,8.00
2015,01,16,17,18,7.90
2015,01,16,17,19,7.90
2015,01,16,17,20,7.90
2015,01,16,17,21,7.90
2015,01,16,17,22,7.80
2015,01,16,17,23,7.80
2015,01,16,17,24,7.80
2015,01,16,17,25,7.80
2015,01,16,17,26,7.80
2015,01,16,17,27,7.70
2015,01,16,17,28,7.70
2015,01,16,17,29,7.70
2015,01,16,17,30,7.70
2015,01,16,17,31,7.70
2015,01,16,17,32,7.70
2015,01,16,17,33,7.70
2015,01,16,17,34,7.70
2015,01,16,17,35,7.60
2015,01,16,17,36,7.60
2015,01,16,17,37,7.60
2015,01,16,17,38,7.60
2015,01,16,17,39,7.60
2015,01,16,17,40,7.60
2015,01,16,17,41,7.60
2015,01,16,17,42,7.60
2015,01,16,17,43,7.60
2015,01,16,17,44,7.60
2015,01,16,17,45,7.60
2015,01,16,17,46,7.60
2015,01,16,17,47,7.60
2015,01,16,17,48,7.60
2015,01,16,17,49,7.60
2015,01,16,17,50,7.60
2015,01,16,17,51,7.60
2015,01,16,17,52,7.60
2015,01,16,17,53,7.60
2015,01,16,17,54,7.60
2015,01,16,17,55,7.60
2015,01,16,17,56,7.60
2015,01,16,17,57,7.60
2015,01,16,17,58,7.60
2015,01,16,17,59,7.50
2015,01,16,18,00,7.50
2015,01,16,18,01,7.50
2015,01,16,18,02,7.50
2015,01,16,18,03,7.50
2015,01,16,18,04,7.50
2015,01,16,18,05,7.40
2015,01,16,18,06,7.40
2015,01,16,18,07,7.40
2015,01,16,18,08,7.40
2015,01,16,18,09,7.40
2015,01,16,18,10,7.40
2015,01,16,18,11,7.40
2015,01,16,18,12,7.40
2015,01,16,18,13,7.40
2015,01,16,18,14,7.40
2015,01,16,18,15,7.40
2015,01,16,18,16,7.30
2015,01,16,18,17,7.30
2015,01,16,18,18,7.30
2015,01,16,18,19,7.30
2015,01,16,18,20,7.30
2015,01,16,18,21,7.30
2015,01,16,18,22,7.30
2015,01,16,18,23,7.30
2015,01,16,18,24,7.20
2015,01,16,18,25,7.20
2015,01,16,18,26,7.20
2015,01,16,18,27,7.20
2015,01,16,18,28,7.10
2015,01,16,18,29,7.10
2015,01,16,18,30,7.10
2015,01,16,18,31,7.10
2015,01,16,18,32,7.00
2015,01,16,18,33,7.00
2015,01,16,18,34,7.00
2015,01,16,18,35,7.00
2015,01,16,18,36,6.90
2015,01,16,18,37,6.90
2015,01,16,18,38,6.90
2015,01,16,18,39,6.80
2015,01,16,18,40,6.80
2015,01,16,18,41,6.80
2015,01,16,18,42,6.80
2015,01,16,18,43,6.80
2015,01,16,18,44,6.70
2015,01,16,18,45,6.70
2015,01,16,18,46,6.70
2015,01,16,18,47,6.60
2015,01,16,18,48,6.60
2015,01,16,18,49,6.60
2015,01,16,18,50,6.60
2015,01,16,18,51,6.50
2015,01,16,18,52,6.50
2015,01,16,18,53,6.50
2015,01,16,18,54,6.40
2015,01,16,18,55,6.40
2015,01,16,18,56,6.40
2015,01,16,18,57,6.40
2015,01,16,18,58,6.30
2015,01,16,18,59,6.30
2015,01,16,19,00,6.30
2015,01,16,19,01,6.30
2015,01,16,19,02,6.30
2015,01,16,19,03,6.20
2015,01,16,19,04,6.20
2015,01,16,19,05,6.20
2015,01,16,19,06,6.20
2015,01,16,19,07,6.20
2015,01,16,19,08,6.20
2015,01,16,19,09,6.10
2015,01,16,19,10,6.10
2015,01,16,19,11,6.20
2015,01,16,19,12,6.20
2015,01,16,19,13,6.20
2015,01,16,19,14,6.20
2015,01,16,19,15,6.30
2015,01,16,19,16,6.30
2015,01,16,19,17,6.30
2015,01,16,19,18,6.30
2015,01,16,19,19,6.30
2015,01,16,19,20,6.30
2015,01,16,19,21,6.30
2015,01,16,19,22,6.30
2015,01,16,19,23,6.30
2015,01,16,19,24,6.30
2015,01,16,19,25,6.40
2015,01,16,19,26,6.40
2015,01,16,19,27,6.40
2015,01,16,19,28,6.50
2015,01,16,19,29,6.50
2015,01,16,19,30,6.60
2015,01,16,19,31,6.60
2015,01,16,19,32,6.60
2015,01,16,19,33,6.70
2015,01,16,19,34,6.70
2015,01,16,19,35,6.70
2015,01,16,19,36,6.80
2015,01,16,19,37,6.80
2015,01,16,19,38,6.80
2015,01,16,19,39,6.90
2015,01,16,19,40,6.90
2015,01,16,19,41,7.00
2015,01,16,19,42,6.90
2015,01,16,19,43,6.90
2015,01,16,19,44,6.90
2015,01,16,19,45,6.90
2015,01,16,19,46,6.90
2015,01,16,19,47,6.90
2015,01,16,19,48,6.90
2015,01,16,19,49,6.90
2015,01,16,19,50,6.90
2015,01,16,19,51,6.90
